Home   Weather   Lutherstadt Eisleben   Past weeks

Flag for Germany Past Weather in Lutherstadt Eisleben, Saxony-Anhalt, Germany — Yesterday and Last 2 Weeks

Now
23 °F

Ice fog.


Feels Like: 16 °F
Forecast: 19 / 32 °F
Wind: 6 mph from South

Location: Leipzig-Schkeuditz

Current Time: Jan 20, 2017 at 2:33:17 am

Latest Report: Jan 20, 2017 at 1:50 am


Visibility: 3 mi

Pressure: 30.60 "Hg

Humidity: 86%

Dew Point: 19 °F

Location of Lutherstadt EislebenLocation

Past Weather in Lutherstadt Eisleben — Graph

°F

Lutherstadt Eisleben Temperature Yesterday

Maximum temperature yesterday: 23 °F (at 12:20 am)
Minimum temperature yesterday: 16 °F (at 7:20 pm)
Average temperature yesterday: 20 °F

High & Low Weather Summary for the Past Weeks

 TemperatureHumidityPressure
High39 °F (Jan 12, 11:20 am)100% (Jan 7, 6:50 pm)30.74 "Hg (Jan 7, 6:50 pm)
Low12 °F (Jan 7, 12:20 am)59% (Jan 7, 2:50 pm)29.00 "Hg (Jan 13, 6:20 am)
Average28 °F87%30.17 "Hg
* Reported Jan 5 1:20 am — Jan 20 1:20 am, Lutherstadt Eisleben, Weather by CustomWeather, © 2017

Note: Actual official high and low records may vary slightly from our data, if they occured in-between our weather recording intervals... More about our weather records

Advertising

Lutherstadt Eisleben Weather History for the Previous 24 Hours

Scroll right to see more
 ConditionsComfort  
Time TempWeatherWind HumidityBarometerVisibility
1:20 am
Fri, Jan 20
21 °FClear.5 mph93%30.63 "Hg4 mi
12:50 am21 °FClear.5 mph93%30.63 "Hg4 mi
12:20 am21 °FIce fog.7 mph93%30.63 "Hg3 mi
11:50 pm
Thu, Jan 19
21 °FIce fog.6 mph93%30.63 "Hg3 mi
11:20 pm21 °FIce fog.5 mph93%30.63 "Hg3 mi
10:50 pm21 °FIce fog.6 mph86%30.63 "Hg3 mi
10:20 pm21 °FIce fog.6 mph86%30.63 "Hg3 mi
9:50 pm19 °FIce fog.6 mph93%30.63 "Hg3 mi
9:20 pm19 °FIce fog.3 mph93%30.66 "Hg3 mi
8:50 pm19 °FIce fog.6 mph93%30.63 "Hg3 mi
8:20 pm18 °FIce fog.5 mph93%30.66 "Hg3 mi
7:50 pm18 °FIce fog.3 mph93%30.66 "Hg2 mi
7:20 pm16 °FIce fog.3 mph93%30.66 "Hg3 mi
6:50 pm18 °FClear.2 mph93%30.63 "Hg3 mi
6:20 pm18 °FClear.6 mph93%30.63 "Hg3 mi
5:50 pm18 °FClear.7 mph93%30.63 "Hg3 mi
5:20 pm18 °FClear.7 mph93%30.63 "Hg3 mi
4:50 pm19 °FClear.3 mph86%30.63 "Hg4 mi
4:20 pm21 °FClear.2 mph80%30.63 "Hg4 mi
3:50 pm23 °FClear.3 mph80%30.63 "Hg5 mi
3:20 pm23 °FClear.2 mph80%30.66 "Hg4 mi
2:50 pm23 °FClear.2 mph80%30.66 "Hg4 mi
2:20 pm23 °FClear.3 mph80%30.66 "Hg4 mi
1:50 pm21 °FPartly sunny.1 mph86%30.66 "Hg4 mi
1:20 pm21 °FPartly sunny.5 mph86%30.66 "Hg4 mi
12:50 pm21 °FPartly sunny.6 mph86%30.66 "Hg4 mi
12:20 pm19 °FPartly sunny.5 mph93%30.69 "Hg3 mi
11:50 am19 °FIce fog.6 mph93%30.69 "Hg3 mi
11:20 am19 °FIce fog.7 mph93%30.69 "Hg3 mi
10:50 am19 °FIce fog.6 mph93%30.69 "Hg3 mi
10:20 am19 °FIce fog.3 mph93%30.69 "Hg3 mi
9:50 am19 °FSnow flurries. Ice fog.6 mph93%30.69 "Hg3 mi
9:20 am19 °FIce fog.6 mph93%30.69 "Hg3 mi
8:50 am19 °FIce fog.6 mph93%30.69 "Hg2 mi
8:20 am19 °FIce fog.6 mph93%30.69 "Hg2 mi
7:50 am19 °FIce fog.5 mph93%30.66 "Hg2 mi
7:20 am19 °FLow clouds.5 mph93%30.66 "Hg3 mi
6:50 am19 °FIce fog.2 mph93%30.66 "Hg3 mi
6:20 am19 °FIce fog.5 mph93%30.66 "Hg3 mi
5:50 am19 °FIce fog.3 mph93%30.66 "Hg3 mi
5:20 am19 °FLight snow. Ice fog.2 mph93%30.69 "Hg3 mi
4:50 am19 °FIce fog.3 mph100%30.69 "Hg3 mi
4:20 am19 °FLight snow. Ice fog.6 mph93%30.69 "Hg3 mi
3:50 am19 °FLow clouds.5 mph100%30.69 "Hg4 mi
3:20 am19 °FLow clouds.3 mph100%30.69 "Hg4 mi
2:50 am19 °FLow clouds.3 mph100%30.69 "Hg4 mi
2:20 am21 °FLow clouds.8 mph93%30.69 "Hg4 mi
Weather by CustomWeather, © 2017

See weather overviewHow to use our weather pages